2018-100A (43823 NORAD) Tracking and Keplerian Element Data

This shows tracking and keplerian element data for the satellite.

Feedback or suggestion? Click here.




ElementValue
Catalog43823
Name2018-100A
Epoch Orbit8
Epoch Day342.87688236
Epoch Year2018
RAAN206.2625
Inclination3.5184
Eccentricity0.7280917
Argument of Perigee181.3282
Mean Anonmoly47.8607
Mean Motion2.28038263
Decay Rate-7E-08
L11 43823U 18100A 18342.87688236 -.00000007 00000-0 00000-0 0 9994
L22 43823 3.5184 206.2625 7280917 181.3282 47.8607 2.28038263 89

Live tracking and technical data element details for 2018-100A (NORAD 43823). 2018-100A can be tracked NOW for your location showing map with azimuth and elevation plus other details from your city location.

Track the satellite on the map from your city or location and see movement details for azimuth, elevation, latitude, longitude, range, height, and movement on the map or in text.







IsCatalogInMostPopularTable: catalog: 43823, numindb: 1
Update: records affected: 1



GetName: 43823 2018-100A

Hit Count: updated at: Tue, 11 Dec 2018 01:53:55 GMT